Location: Stanford
(52.2833°N, 2.4333°W)
Time: 23:43:12
(UTC+00:00)

Aureole 2 Rocket - Pass Details

Date: 22 January 2021
Orbit: 285 x 373 km, 73.9° (Epoch: 01 March)

Event Time Altitude Azimuth Distance (km) Brightness Sun altitude
Rises 19:02:40 0° 224° (SW) 2,232 6.7 -21.5°
Maximum altitude 19:07:35 34° 302° (WNW) 663 3.6 -22.3°
Enters shadow 19:07:58 33° 319° (NW) 684 3.6 -22.3°
